Location: Albuquerque Trailhead
(34.7934°N, 106.3736°W)
Time: 01:49:50
(UTC+00:00)

X-37B - Pass Details

Date: 20 June 2021
Orbit: 383 x 392 km, 45.0° (Epoch: 01 July)

Event Time Altitude Azimuth Distance (km) Brightness Sun altitude
Exits shadow 09:42:27 - 311° (NW) 2,076 4.3 -21.1°
Reaches altitude 10° 09:44:24 10° 327° (NNW) 1,405 3.6 -20.9°
Maximum altitude 09:46:48 20° 17° (NNE) 966 3.4 -20.5°
Drops below altitude 10° 09:49:13 10° 67° (ENE) 1,406 4.3 -20.2°
Sets 09:51:39 0° 85° (E) 2,260 5.1 -19.9°
